User: anonymous   Login
Location: Kielce
(50.8833°N, 20.6167°E)
Time: 21:47:07
(UTC+02:00)
Language:

Explorer 11/Cluster Stage 4 - Orbit

View from above orbital plane
View from above orbital plane
View from above satellite
View from above satellite

Ground track
Ground track

The orbit data is extracted from the following two-line orbital elements,

1 00107U 61013A   21107.43312073  .00000334  00000-0  25846-4 0  9992
2 00107  28.7883 264.4189 0545975 359.9417   0.1040 14.09174759  9149
Epoch (UTC): 17 April 2021 10:23:41
Eccentricity: 0.0545975
inclination: 28.7883°
perigee height: 467 km
apogee height: 1257 km
right ascension of ascending node: 264.4189°
argument of perigee: 359.9417°
revolutions per day: 14.09174759
mean anomaly at epoch: 0.1040°
orbit number at epoch: 914

The dashed part of the orbit path shows where the satellite is in the earth's shadow,  

DLR